Temperature
2 2 2 2 1 1 1 1 1 1 1 1 -0 -1 -1 -2 -2 -3 -3 -3 -3 -3 -2 -2 -2 -2 -2 -2 -2 -2 -2 -2 -2 -2 -1 -1 -1 -1 -1 -1 -1 -1 -1 -1
0 2 2 1 1 1 0 0 0 0 0 -0 -1 -1 -2 -3 -3 -4 -4 -4 -4 -4 -3 -3 -3 -3 -3 -2 -2 -2 -2 -2 -2 -2 -2 -2 -2 -1 -1 -1 -1 -1 -1 -1
1 1 1 -0 -0 -0 -0 -1 -1 -1 -1 -2 -2 -3 -3 -3 -4 -4 -5 -5 -5 -4 -4 -4 -3 -3 -3 -3 -3 -3 -3 -3 -3 -3 -3 -3 -2 -2 -2 -2 -2 -2 -2 -2
0 0 -1 -0 -0 -0 -1 -1 -2 -2 -3 -3 -3 -3 -3 -4 -4 -5 -5 -5 -5 -5 -4 -4 -4 -4 -4 -4 -4 -3 -3 -4 -4 -3 -3 -3 -3 -3 -2 -3 -3 -3 -3 -3
-1 -1 -0 -0 -2 -2 -2 -2 -3 -3 -3 -4 -4 -4 -4 -4 -5 -5 -5 -6 -6 -5 -5 -5 -4 -4 -4 -4 -4 -4 -4 -4 -4 -4 -4 -4 -4 -3 -3 -3 -3 -3 -3 -3
-1 -1 -1 -1 -3 -3 -2 -3 -4 -4 -4 -5 -5 -5 -5 -5 -6 -6 -6 -6 -6 -6 -6 -5 -5 -5 -5 -5 -5 -5 -5 -5 -5 -5 -5 -5 -4 -4 -4 -4 -4 -4 -4 -4
-2 -2 -2 -3 -4 -3 -3 -3 -5 -5 -5 -5 -6 -6 -6 -6 -6 -6 -6 -7 -6 -6 -6 -6 -6 -6 -6 -6 -6 -6 -6 -5 -6 -6 -5 -5 -5 -5 -5 -5 -5 -5 -5 -5
-3 -2 -2 -5 -5 -5 -5 -5 -5 -5 -6 -6 -6 -6 -7 -7 -7 -7 -7 -7 -7 -7 -7 -7 -7 -6 -6 -6 -6 -6 -6 -6 -6 -6 -6 -6 -6 -6 -6 -6 -6 -6 -6 -6
-4 -4 -4 -5 -5 -5 -5 -6 -6 -6 -6 -7 -7 -7 -8 -8 -8 -8 -8 -7 -7 -7 -7 -7 -7 -7 -7 -7 -7 -7 -7 -7 -7 -7 -7 -7 -6 -7 -7 -7 -7 -7 -7 -7
-5 -6 -5 -5 -5 -6 -6 -6 -6 -7 -7 -7 -7 -8 -8 -8 -8 -8 -8 -8 -8 -8 -8 -8 -8 -8 -8 -7 -8 -7 -8 -8 -8 -7 -7 -7 -7 -7 -7 -7 -7 -7 -7 -7
-6 -6 -6 -6 -6 -6 -7 -7 -7 -7 -7 -8 -8 -8 -9 -9 -9 -9 -9 -9 -8 -8 -8 -8 -8 -8 -8 -8 -8 -8 -8 -8 -8 -8 -8 -8 -8 -8 -8 -8 -8 -8 -8 -8
-6 -6 -7 -7 -6 -7 -7 -8 -8 -8 -8 -8 -9 -9 -9 -9 -9 -9 -9 -9 -9 -9 -9 -9 -9 -9 -9 -9 -9 -9 -9 -9 -9 -9 -9 -9 -9 -9 -8 -8 -8 -8 -8 -8
-6 -6 -6 -7 -7 -8 -8 -8 -8 -8 -9 -9 -9 -9 -10 -10 -10 -10 -10 -10 -10 -10 -10 -10 -9 -9 -9 -9 -9 -9 -9 -10 -9 -9 -9 -9 -9 -9 -9 -9 -9 -9 -9 -9
-7 -7 -8 -8 -8 -8 -9 -9 -9 -9 -9 -9 -10 -10 -10 -10 -10 -10 -10 -10 -10 -10 -10 -10 -10 -10 -10 -10 -10 -10 -10 -10 -10 -10 -10 -10 -10 -10 -10 -10 -10 -9 -9 -9
-8 -8 -8 -9 -9 -9 -9 -9 -9 -10 -10 -10 -10 -11 -11 -11 -11 -11 -11 -11 -11 -11 -11 -11 -11 -11 -11 -11 -11 -10 -10 -11 -11 -11 -11 -11 -11 -11 -11 -10 -10 -10 -10 -10
-9 -9 -9 -9 -10 -10 -10 -10 -10 -10 -11 -11 -11 -11 -11 -11 -11 -11 -11 -11 -11 -11 -11 -11 -11 -11 -11 -11 -11 -11 -11 -11 -11 -11 -11 -11 -11 -11 -11 -11 -11 -11 -11 -11
-10 -10 -10 -10 -10 -10 -10 -10 -11 -11 -11 -11 -11 -11 -11 -12 -11 -11 -12 -12 -12 -12 -12 -12 -12 -12 -12 -12 -12 -12 -12 -12 -12 -12 -12 -12 -12 -12 -12 -12 -12 -12 -12 -12
-10 -10 -10 -10 -10 -10 -11 -11 -11 -11 -11 -11 -12 -12 -12 -12 -12 -12 -12 -12 -12 -12 -12 -12 -12 -12 -12 -12 -12 -12 -12 -12 -12 -12 -12 -12 -12 -12 -12 -12 -12 -12 -12 -12
-10 -10 -10 -11 -11 -11 -11 -11 -11 -12 -12 -12 -12 -12 -12 -12 -13 -13 -13 -13 -13 -13 -13 -13 -13 -13 -13 -13 -13 -13 -13 -13 -13 -13 -13 -13 -13 -13 -13 -13 -13 -13 -13 -13
-11 -11 -11 -11 -11 -11 -11 -12 -12 -12 -12 -12 -12 -12 -13 -13 -13 -13 -13 -13 -13 -13 -13 -13 -13 -13 -13 -13 -13 -13 -13 -13 -13 -13 -13 -13 -13 -13 -13 -13 -13 -13 -13 -13
-11 -11 -11 -12 -12 -12 -12 -12 -12 -12 -13 -13 -13 -13 -13 -13 -14 -14 -14 -14 -14 -14 -14 -14 -14 -14 -14 -14 -14 -14 -14 -13 -13 -13 -14 -14 -14 -14 -14 -13 -13 -13 -13 -13
-12 -12 -12 -12 -12 -12 -12 -13 -13 -13 -13 -13 -13 -13 -13 -14 -14 -14 -14 -14 -14 -14 -14 -14 -14 -14 -14 -14 -14 -14 -14 -14 -14 -14 -14 -14 -14 -14 -14 -14 -14 -14 -14 -14
-12 -12 -12 -13 -13 -13 -13 -13 -13 -13 -13 -13 -14 -14 -14 -14 -14 -14 -14 -14 -14 -15 -14 -14 -14 -14 -15 -14 -14 -14 -14 -14 -14 -14 -15 -14 -15 -15 -14 -14 -14 -14 -14 -14
-12 -13 -13 -13 -13 -13 -13 -13 -13 -13 -14 -14 -14 -14 -14 -14 -14 -15 -15 -15 -15 -15 -15 -15 -15 -15 -15 -15 -15 -15 -15 -15 -15 -15 -15 -15 -15 -15 -15 -15 -15 -15 -15 -15
-13 -13 -13 -13 -13 -13 -14 -14 -14 -14 -14 -14 -14 -15 -15 -15 -15 -15 -15 -15 -15 -15 -15 -15 -15 -15 -15 -15 -15 -15 -15 -15 -15 -16 -16 -16 -16 -15 -15 -15 -15 -15 -15 -15
-13 -13 -14 -14 -14 -14 -14 -14 -14 -14 -14 -15 -15 -15 -15 -15 -15 -15 -15 -15 -15 -16 -15 -15 -15 -16 -16 -16 -16 -16 -16 -16 -16 -16 -16 -16 -16 -16 -16 -16 -16 -16 -15 -15
-14 -14 -14 -14 -14 -14 -14 -15 -15 -15 -15 -15 -15 -15 -16 -16 -16 -16 -16 -16 -16 -16 -16 -16 -16 -16 -16 -16 -16 -16 -16 -16 -16 -16 -16 -16 -16 -16 -16 -16 -16 -16 -16 -16
Wind_Speed
7 7 6 6 7 7 8 8 7 8 10 9 4 4 4 4 4 5 5 5 5 4 4 3 3 3 2 2 2 1 2 3 3 2 2 3 3 3 3 4 5 5 5 5
6 7 7 8 9 8 9 9 10 11 12 6 4 3 4 4 4 4 5 5 5 5 4 3 2 3 2 2 2 1 2 2 2 2 2 2 3 3 3 3 4 4 5 5
4 3 5 7 6 7 6 5 5 9 8 4 5 5 5 4 3 4 4 5 5 5 5 3 3 3 2 2 2 1 1 2 2 2 2 2 2 3 3 3 3 4 4 5
3 2 6 5 1 1 4 5 3 3 4 4 4 5 4 2 2 4 5 5 5 5 4 4 3 2 2 1 1 0 1 1 1 2 2 2 2 2 3 3 3 4 4 5
2 4 6 3 1 1 3 5 2 4 5 5 5 4 3 3 5 5 5 5 4 4 4 3 3 2 1 1 1 1 1 1 1 2 2 2 2 2 2 3 3 3 4 4
3 4 5 3 1 3 1 5 2 3 4 5 4 3 4 5 6 6 6 5 5 4 3 3 2 1 1 1 1 1 2 2 2 2 2 2 2 2 2 2 2 2 2 3
6 6 5 1 2 1 2 5 3 3 3 3 2 4 4 5 5 5 5 4 4 3 3 3 2 1 1 1 1 1 1 1 1 1 1 2 2 1 2 2 2 2 2 2
4 5 7 1 2 2 3 2 2 3 3 3 3 4 4 4 4 5 4 4 3 3 3 3 2 1 1 2 2 1 1 1 1 1 0 1 2 1 1 2 2 2 2 2
5 5 1 2 2 1 1 2 3 3 3 3 3 4 4 4 4 4 4 3 3 3 3 3 2 2 1 2 1 1 1 1 1 1 1 1 2 2 1 2 2 2 2 2
3 4 2 1 0 1 1 2 2 2 2 2 3 3 4 4 3 3 3 3 3 3 3 3 3 3 2 2 2 2 1 1 1 1 1 1 1 1 1 1 2 2 2 2
4 3 3 2 2 2 2 2 2 3 2 2 2 3 3 3 3 3 4 3 3 3 3 4 4 4 3 3 2 2 1 1 1 1 1 1 1 1 0 1 2 2 2 2
5 4 3 4 2 1 1 2 2 2 3 2 1 2 2 2 2 2 3 3 3 3 3 4 4 4 4 3 2 2 1 1 1 1 1 1 1 2 3 2 2 2 2 2
5 3 2 2 1 1 0 1 2 2 2 2 1 1 1 2 2 2 3 3 3 3 3 3 4 4 4 4 3 2 1 2 1 1 1 1 1 1 1 3 3 3 3 2
2 1 2 2 1 1 1 1 1 2 2 1 1 1 1 2 2 2 2 3 3 3 3 3 4 4 4 3 3 2 2 2 2 1 1 1 1 0 0 0 1 2 3 3
1 1 2 0 1 1 1 2 2 2 2 2 1 1 1 1 1 2 3 3 3 3 3 4 4 5 5 4 3 3 2 2 1 1 1 1 1 0 1 1 1 1 1 2
1 0 1 1 0 1 1 1 1 1 1 1 1 1 1 1 2 2 2 2 3 3 3 4 4 5 4 3 3 2 2 3 3 1 1 1 1 1 1 1 1 1 1 2
1 1 1 1 1 1 1 1 1 1 1 0 1 1 2 2 2 2 3 3 3 3 3 3 4 4 3 3 3 2 2 3 4 2 2 1 1 1 1 1 1 1 1 2
1 1 1 1 1 1 1 1 1 1 1 0 1 1 1 1 1 2 2 3 3 4 4 4 4 3 3 3 2 2 2 2 2 2 2 1 1 1 1 1 2 2 2 3
1 1 1 1 1 1 0 0 0 1 1 1 1 1 1 1 1 2 2 2 3 4 5 5 6 4 3 4 3 2 2 2 2 2 2 2 2 1 1 2 2 2 2 2
1 2 2 2 2 2 1 1 1 1 1 1 2 1 1 2 2 2 2 2 2 3 4 4 4 3 3 3 4 2 2 1 2 2 2 2 2 2 2 2 2 2 2 2
1 1 1 2 2 1 1 1 1 1 1 1 1 0 1 2 2 1 1 3 3 3 3 5 3 3 3 3 3 2 2 2 2 2 2 2 2 2 2 2 2 2 2 2
1 1 1 1 1 1 1 1 1 1 1 1 1 1 1 2 2 2 2 2 3 5 4 3 2 4 4 4 2 2 2 2 2 2 2 2 2 2 2 2 2 3 3 2
1 1 1 1 1 1 1 1 0 0 0 0 1 1 1 2 2 2 3 3 2 5 4 3 4 6 6 3 2 2 2 2 2 2 2 2 2 2 2 3 3 3 3 3
1 1 1 1 2 1 1 1 0 0 0 1 1 1 1 2 2 2 2 4 5 6 3 5 7 6 5 2 2 2 2 2 2 2 2 2 2 3 3 3 3 3 3 4
1 1 1 1 1 0 1 1 1 1 1 1 1 1 1 1 2 2 2 3 5 5 4 5 7 7 4 2 2 2 2 3 3 3 2 3 3 3 3 4 4 4 4 4
1 1 1 1 0 0 0 0 1 1 1 1 2 1 1 1 2 2 2 2 3 5 4 3 4 5 3 2 3 3 3 4 4 4 3 3 4 4 4 4 5 5 5 5
1 1 1 1 1 0 0 0 1 1 1 2 2 2 2 2 2 2 2 3 3 3 3 3 3 3 3 3 3 3 3 4 4 4 4 4 4 4 5 6 5 5 6 6
Wind_Direction
263 277 277 261 260 241 228 236 241 258 268 282 313 317 330 344 347 350 348 346 346 341 344 352 360 351 338 322 322 248 197 198 199 199 200 194 192 194 195 193 196 195 196 198
265 257 264 269 266 251 243 248 249 264 272 304 326 344 348 346 341 332 329 328 331 331 333 339 340 329 321 314 303 272 199 205 205 198 202 202 201 198 191 194 195 193 195 197
263 261 299 272 252 233 233 237 231 249 266 325 330 330 320 317 318 314 317 321 324 323 321 320 318 310 292 288 286 271 216 203 204 197 210 213 210 198 191 190 195 198 198 198
274 283 246 244 66 199 229 245 234 267 312 323 309 313 309 323 342 335 331 326 320 317 317 318 319 318 319 301 276 273 255 211 201 200 214 215 210 202 196 190 197 202 200 202
239 251 262 255 275 284 246 265 272 280 306 324 329 326 320 3 0 338 327 324 317 316 320 327 323 325 351 333 324 329 310 274 234 214 211 204 203 208 190 185 200 208 202 197
240 246 250 252 346 330 268 262 319 318 304 318 342 315 290 337 343 337 339 336 334 336 347 348 339 358 20 336 320 304 303 295 283 240 211 199 199 204 193 183 196 214 215 199
239 245 257 290 309 49 191 264 332 342 329 322 295 271 293 322 331 337 337 337 345 353 351 337 340 17 7 327 300 308 324 320 304 256 219 193 181 191 180 182 180 197 211 211
220 231 249 54 107 182 235 334 339 335 332 325 309 318 323 328 333 339 342 347 359 357 343 341 2 23 342 309 314 1 8 343 339 337 322 142 147 167 178 175 173 190 205 211
204 219 265 127 164 227 305 293 308 318 325 323 318 320 325 326 327 331 338 346 356 354 343 350 10 27 356 336 10 47 42 14 10 12 22 85 137 155 166 170 174 195 197 207
240 249 247 209 280 340 339 299 317 317 315 313 302 310 316 321 330 339 347 354 2 6 2 359 3 9 5 360 32 66 55 16 37 65 50 54 74 130 154 170 180 192 203 206
245 268 298 254 266 288 311 332 331 325 322 303 299 308 312 322 334 343 345 357 9 10 0 356 5 8 4 16 39 56 42 33 32 44 76 68 45 49 82 208 210 199 201 200
241 232 234 257 260 274 307 308 311 324 335 342 326 300 321 328 338 347 349 359 5 10 5 359 4 4 4 11 24 38 8 12 39 57 65 77 73 36 17 357 333 304 277 250
243 278 263 264 322 30 333 323 333 327 313 320 339 340 348 351 353 360 356 357 359 1 2 2 2 0 1 4 7 22 13 357 2 9 27 30 44 62 19 7 357 339 313 290
238 242 256 264 277 354 15 7 7 5 14 15 18 22 21 11 3 1 353 355 1 9 8 7 3 355 352 356 2 11 8 349 348 2 10 5 351 335 306 295 341 345 342 328
263 256 218 227 75 55 41 37 25 9 11 10 26 32 26 14 355 349 355 359 7 9 6 5 360 349 350 357 1 3 357 355 0 13 9 353 343 331 319 311 299 318 342 342
260 64 113 133 137 23 18 13 340 315 342 353 13 13 10 14 14 7 6 15 14 358 351 353 346 340 347 355 353 353 351 344 350 1 0 352 345 332 319 314 314 320 319 320
168 224 227 251 258 284 308 314 295 301 334 343 347 29 39 36 24 14 7 6 3 346 341 341 332 336 349 355 351 344 346 343 343 349 351 337 328 319 320 321 309 303 298 306
198 201 180 196 217 237 303 358 6 352 322 350 75 73 67 53 7 351 354 1 3 355 346 339 334 343 352 349 347 345 348 347 349 342 337 332 331 330 325 313 301 296 303 309
105 102 92 89 101 148 157 19 342 355 20 70 84 78 49 21 13 354 360 6 356 340 334 335 341 354 352 342 346 350 346 344 344 339 334 323 328 335 324 314 305 302 304 307
77 83 85 80 76 89 91 79 80 63 49 73 81 59 23 10 13 10 9 348 324 316 320 333 343 344 342 336 338 344 335 332 334 334 332 323 321 321 316 312 310 305 307 307
92 98 97 95 80 70 78 84 93 79 45 71 100 75 347 346 354 357 355 333 333 333 338 340 347 338 337 337 335 347 340 336 335 330 324 320 319 317 316 314 314 311 306 308
103 108 109 108 101 61 45 66 87 89 58 42 35 23 3 344 340 338 323 307 324 333 346 344 334 332 340 343 355 4 358 344 331 324 318 312 309 308 311 313 309 309 305 299
108 115 126 138 139 101 54 44 46 97 75 360 340 327 311 307 319 321 319 324 330 331 342 334 331 336 341 358 4 359 349 336 323 316 313 309 304 302 302 303 300 300 298 292
111 112 113 103 105 91 19 331 326 358 293 294 295 285 288 310 318 303 288 319 329 329 337 330 333 336 342 360 350 339 329 320 314 310 304 297 296 296 293 292 291 289 287 285
131 130 122 119 120 253 288 328 3 340 325 317 316 308 293 278 283 307 316 318 321 328 330 328 331 335 345 339 328 316 308 298 294 297 294 295 293 291 289 288 285 283 281 279
137 146 164 183 198 247 295 319 317 314 317 317 320 319 309 295 288 297 306 310 310 320 326 322 324 325 323 316 307 302 297 300 305 303 295 290 288 286 285 284 283 280 279 280
90 86 79 49 20 338 315 308 296 302 305 302 307 311 309 310 308 306 305 308 311 311 310 312 309 304 300 298 295 294 293 291 290 289 286 283 282 281 282 281 281 280 278 276
Height
1463 1461 1461 1462 1461 1461 1462 1461 1461 1455 1453 1450 1453 1453 1452 1451 1450 1448 1447 1445 1444 1443 1442 1442 1442 1442 1442 1443 1443 1444 1445 1446 1448 1450 1452 1453 1455 1456 1458 1460 1462 1463 1465 1466
1464 1459 1459 1459 1457 1457 1458 1458 1457 1454 1452 1451 1452 1451 1450 1450 1448 1447 1445 1444 1443 1442 1441 1440 1439 1439 1439 1439 1440 1441 1442 1443 1444 1446 1448 1449 1451 1452 1454 1455 1457 1459 1460 1462
1460 1456 1457 1458 1454 1455 1455 1454 1455 1455 1453 1452 1451 1450 1449 1448 1447 1445 1444 1442 1441 1440 1439 1438 1437 1437 1437 1437 1437 1437 1439 1440 1441 1442 1444 1445 1447 1448 1449 1451 1452 1454 1455 1457
1462 1460 1464 1454 1450 1450 1451 1451 1452 1452 1452 1451 1450 1448 1447 1446 1445 1443 1442 1441 1439 1438 1436 1436 1435 1435 1434 1434 1434 1435 1436 1436 1437 1439 1440 1441 1443 1443 1445 1447 1448 1449 1451 1452
1463 1462 1453 1451 1451 1451 1452 1451 1450 1450 1449 1449 1447 1445 1444 1443 1443 1442 1441 1439 1437 1436 1434 1433 1432 1432 1431 1431 1431 1432 1433 1433 1434 1435 1436 1437 1438 1439 1441 1442 1444 1445 1446 1448
1460 1459 1453 1451 1451 1449 1451 1451 1449 1448 1448 1448 1447 1447 1444 1442 1441 1439 1438 1436 1435 1433 1432 1431 1430 1429 1429 1429 1429 1429 1430 1430 1431 1432 1433 1434 1435 1436 1437 1438 1439 1441 1442 1443
1461 1459 1453 1453 1450 1450 1455 1451 1450 1448 1447 1447 1447 1447 1444 1441 1439 1437 1436 1434 1432 1431 1429 1428 1428 1427 1427 1427 1427 1427 1428 1428 1429 1430 1430 1431 1432 1433 1434 1435 1436 1437 1438 1439
1460 1458 1455 1451 1450 1453 1452 1450 1448 1447 1447 1446 1445 1443 1441 1440 1437 1435 1433 1431 1430 1428 1427 1427 1426 1426 1425 1425 1425 1425 1425 1426 1426 1427 1427 1428 1429 1430 1431 1431 1432 1433 1435 1436
1455 1454 1450 1449 1449 1449 1448 1448 1447 1445 1445 1444 1442 1441 1439 1437 1436 1434 1432 1430 1428 1427 1425 1425 1424 1424 1423 1423 1423 1423 1423 1424 1424 1424 1425 1426 1426 1427 1428 1429 1429 1430 1431 1432
1451 1449 1448 1447 1447 1447 1446 1446 1445 1444 1443 1441 1440 1439 1437 1435 1434 1432 1430 1429 1427 1425 1424 1423 1423 1422 1422 1422 1422 1421 1421 1422 1422 1422 1423 1423 1424 1425 1425 1426 1427 1427 1428 1429
1449 1447 1446 1445 1445 1444 1444 1443 1442 1441 1440 1439 1438 1436 1435 1433 1432 1430 1429 1428 1426 1425 1423 1423 1422 1421 1421 1420 1420 1420 1420 1420 1420 1421 1421 1421 1422 1423 1423 1424 1425 1425 1426 1426
1445 1444 1444 1443 1442 1442 1441 1440 1439 1438 1437 1436 1435 1434 1433 1431 1430 1429 1428 1426 1425 1424 1423 1422 1421 1420 1420 1420 1419 1419 1418 1419 1419 1419 1419 1419 1420 1421 1421 1422 1423 1424 1424 1424
1441 1440 1440 1439 1440 1439 1438 1438 1437 1436 1435 1434 1433 1432 1431 1429 1428 1427 1426 1425 1424 1423 1422 1421 1420 1419 1419 1419 1418 1418 1417 1417 1417 1417 1417 1417 1418 1418 1419 1420 1420 1421 1421 1422
1439 1438 1437 1437 1437 1436 1436 1435 1434 1434 1433 1432 1431 1430 1429 1428 1427 1426 1425 1424 1424 1422 1422 1420 1419 1418 1418 1418 1417 1417 1416 1416 1416 1416 1416 1416 1417 1417 1417 1417 1417 1418 1419 1419
1436 1435 1435 1434 1434 1434 1433 1433 1432 1431 1431 1430 1429 1428 1427 1426 1425 1425 1425 1424 1423 1422 1421 1420 1418 1418 1417 1417 1416 1415 1415 1415 1414 1415 1415 1415 1415 1415 1415 1415 1415 1415 1416 1416
1433 1432 1432 1432 1431 1431 1431 1430 1430 1429 1429 1428 1427 1427 1426 1426 1425 1424 1424 1423 1422 1421 1420 1419 1418 1417 1416 1416 1415 1414 1414 1414 1413 1413 1413 1413 1414 1414 1414 1414 1414 1413 1413 1414
1430 1430 1430 1430 1429 1429 1429 1429 1429 1428 1427 1427 1426 1426 1425 1424 1424 1423 1422 1422 1421 1420 1420 1419 1418 1417 1416 1415 1414 1413 1413 1412 1412 1412 1412 1412 1412 1412 1412 1412 1412 1411 1411 1412
1428 1428 1428 1428 1428 1428 1428 1427 1427 1427 1426 1426 1425 1424 1424 1423 1422 1422 1421 1421 1420 1419 1419 1418 1417 1416 1415 1414 1413 1413 1412 1411 1411 1411 1411 1411 1410 1410 1410 1410 1410 1409 1409 1410
1426 1426 1426 1426 1426 1426 1426 1426 1426 1425 1425 1424 1424 1423 1423 1422 1422 1421 1421 1420 1419 1418 1418 1417 1416 1415 1414 1413 1412 1411 1411 1410 1410 1409 1409 1409 1409 1409 1408 1408 1408 1408 1407 1407
1425 1425 1425 1425 1425 1425 1425 1424 1424 1424 1424 1423 1423 1422 1422 1421 1421 1420 1420 1419 1418 1418 1417 1416 1415 1414 1413 1412 1411 1411 1410 1409 1409 1408 1408 1407 1407 1407 1407 1406 1406 1406 1406 1406
1424 1424 1424 1424 1424 1424 1424 1423 1423 1423 1423 1422 1422 1421 1421 1420 1420 1419 1418 1417 1418 1417 1416 1415 1414 1413 1412 1411 1410 1410 1409 1408 1407 1407 1406 1406 1406 1405 1405 1404 1404 1404 1403 1403
1424 1423 1423 1423 1423 1423 1423 1422 1422 1422 1422 1421 1421 1420 1420 1419 1419 1418 1418 1417 1417 1416 1415 1414 1413 1412 1411 1410 1409 1408 1407 1407 1406 1405 1405 1404 1404 1403 1402 1402 1401 1401 1401 1401
1423 1423 1422 1422 1422 1422 1422 1422 1421 1421 1421 1420 1420 1419 1419 1418 1418 1417 1416 1416 1415 1414 1413 1412 1411 1411 1410 1409 1408 1407 1406 1405 1404 1403 1403 1402 1401 1401 1400 1399 1399 1398 1398 1398
1422 1422 1421 1421 1421 1421 1421 1421 1421 1420 1420 1419 1419 1419 1418 1417 1416 1416 1415 1414 1414 1413 1412 1411 1410 1409 1408 1407 1406 1405 1404 1403 1402 1401 1400 1399 1399 1398 1397 1397 1396 1395 1395 1394
1421 1420 1420 1420 1420 1420 1420 1419 1419 1419 1419 1418 1418 1417 1417 1416 1415 1414 1413 1413 1412 1411 1409 1408 1408 1407 1405 1404 1403 1402 1401 1400 1400 1399 1398 1397 1396 1395 1394 1394 1393 1392 1391 1391
1419 1419 1419 1419 1419 1419 1418 1418 1417 1417 1417 1416 1416 1415 1415 1414 1413 1412 1411 1410 1409 1408 1407 1406 1405 1404 1403 1402 1401 1400 1399 1398 1397 1396 1395 1394 1393 1392 1391 1390 1389 1388 1387 1387
1418 1418 1418 1417 1417 1417 1417 1416 1416 1415 1415 1414 1413 1413 1412 1411 1411 1410 1409 1408 1407 1406 1405 1404 1403 1401 1400 1399 1398 1397 1396 1394 1393 1392 1391 1390 1389 1388 1387 1386 1385 1384 1383 1382